Flag for Norway Weather past 2 weeks in Hommelvik, Norway

Now
69 °F

Sunny.


Feels Like: 69 °F
Forecast: 56 / 78 °F
Wind: 6 mph from West

Location: Trondheim / Vaernes

Current Time: Jul 25, 2014 at 9:30:36 PM

Latest Report: Jul 25, 2014 at 8:00 PM


Visibility: 22 mi

Pressure: 30.19 "Hg

Humidity: 71%

Dew point: 60 °F

Location of HommelvikLocation

Historic Weather in Hommelvik — Graph

°F

Hommelvik temperature yesterday

Maximum temperature yesterday: 78 °F (at 4:00 PM)
Minimum temperature yesterday: 57 °F (at 5:00 AM)
Average temperature yesterday: 68 °F

Past Weeks' High & Low Weather Summary

 TemperatureHumidityPressure
High88 °F (Jul 21, 6:00 PM)97% (Jul 19, 3:00 AM)30.35 "Hg (Jul 19, 3:00 AM)
Low55 °F (Jul 17, 4:00 AM)26% (Jul 13, 2:00 PM)29.65 "Hg (Jul 14, 7:00 PM)
Average68 °F71%30.06 "Hg
* Reported Jul 10 8:00 PM — Jul 25 8:00 PM, Hommelvik, Weather by CustomWeather, © 2014

Note: Actual official high and low records may vary slightly from our data, if they occured in-between our weather recording intervals... More about our weather records

Advertising

Hommelvik weather history for previous 24 hours

 ConditionsComfort  
Time TempWeatherWind HumidityBarometerVisibility
8:00 PM
Jul 25
69 °FSunny.6 mph71%30.19 "Hg22 mi
7:00 PM71 °FSunny.6 mph69%30.19 "Hg19 mi
6:00 PM71 °FSunny.7 mph68%30.20 "Hg25 mi
5:00 PM71 °FPassing clouds.8 mph70%30.20 "Hg16 mi
4:00 PM71 °FSunny.8 mph70%30.20 "Hg19 mi
3:00 PM70 °FSunny.7 mph70%30.21 "Hg17 mi
2:00 PM70 °FSunny.5 mph70%30.22 "Hg22 mi
1:00 PM67 °FScattered clouds.7 mph75%30.22 "Hg15 mi
12:00 PM67 °FSunny.6 mph77%30.22 "Hg15 mi
11:00 AM67 °FSunny.7 mph78%30.22 "Hg13 mi
10:00 AM66 °FSunny.6 mph80%30.22 "Hg15 mi
9:00 AM65 °FSunny.6 mph83%30.22 "Hg16 mi
8:00 AM65 °FSunny.1 mph80%30.21 "Hg17 mi
7:00 AM61 °FSunny.2 mph86%30.21 "Hg17 mi
6:00 AM59 °FSunny.3 mph89%30.22 "Hg16 mi
5:00 AM58 °FSunny.3 mph89%30.21 "Hg16 mi
4:00 AM58 °FClear.3 mph90%30.20 "Hg17 mi
3:00 AM60 °FClear.3 mph87%30.20 "Hg19 mi
2:00 AM61 °FClear.5 mph86%30.20 "Hg18 mi
1:00 AM63 °FClear.3 mph82%30.20 "Hg25 mi
12:00 AM65 °FClear.2 mph78%30.20 "Hg25 mi
11:00 PM
Jul 24
70 °FClear.2 mph66%30.19 "Hg28 mi
10:00 PM72 °FSunny.5 mph69%30.19 "Hg25 mi
9:00 PM74 °FSunny.3 mph62%30.19 "Hg25 mi
Weather by CustomWeather, © 2014

See weather overviewHow to use our weather pages